Regional Weather Roundup
Issued by NWS

Home | Current Version | Previous Version | Text Only | Print | Product List | Glossary Off
Versions: 1 2 3 4 5 6 7 8 9 10 11 12 13 14 15 16 17 18 19 20 21 22 23 24 25 26 27 28 29 30 31 32 33 34 35 36 37 38 39 40 41 42 43 44 45 46 47 48 49 50

000
ASUS43 KLMK 230602
RWRKY
KENTUCKY REGIONAL WEATHER ROUNDUP
NATIONAL WEATHER SERVICE LOUISVILLE KY
200 AM EDT WED MAY 23 2018

NOTE "FAIR" INDICATES FEW OR NO CLOUDS BELOW 12,000 FEET
WITH NO SIGNIFICANT WEATHER AND/OR OBSTRUCTIONS TO VISIBILITY.

KYZ001>023-026-027-061>063-070>075-230700-
WESTERN AND SOUTH CENTRAL KENTUCKY

CITY           SKY/WX    TMP DP  RH WIND       PRES   REMARKS
PADUCAH        FAIR      70  67  90 CALM      30.04R
HENDERSON      NOT AVBL
OWENSBORO      FAIR      72  69  90 CALM      30.04S
HOPKINSVILLE   FAIR      70  70 100 CALM      30.05S
BOWLING GREEN  FAIR      69  68  96 CALM      30.05F
GLASGOW        NOT AVBL
$$

KYZ024-025-028>034-038-045-046-053-230700-
NORTH CENTRAL KENTUCKY

CITY           SKY/WX    TMP DP  RH WIND       PRES   REMARKS
LOUISVILLE/SDF MOCLDY    74  70  87 SW7       30.02F
LOUISVILLE/LOU FAIR      73  72  96 SW5       30.03S
FORT KNOX      FAIR      68  68 100 CALM      30.05S
$$

KYZ035>037-039>044-047>052-055>060-089>105-230700-
NORTHEAST KENTUCKY

CITY           SKY/WX    TMP DP  RH WIND       PRES   REMARKS
LEXINGTON      MOCLDY    69  64  84 CALM      30.05R
COVINGTON      FAIR      68  59  73 N9        30.05R
FRANKFORT      FAIR      68  64  87 CALM      30.04R
$$

KYZ054-064>069-076>088-106>120-230700-
SOUTHEAST KENTUCKY

CITY           SKY/WX    TMP DP  RH WIND       PRES   REMARKS
JACKSON        FAIR      66  64  93 CALM      30.07R
LONDON         FOG       63  63 100 CALM      30.07S VSB 1/2
SOMERSET       NOT AVBL
MIDDLESBORO    MOCLDY    63  63 100 CALM      30.08S
MONTICELLO     FAIR      63  63 100 W5        30.08F FOG
$$





USA.gov is the U.S. government's official web portal to all federal, state and local government web resources and services.